Вернуться в каталог

BLOCK DM-SL R/B

АктивенGTO
NORAD 29521·ROCKET BODY· XX

Запущен Oct 30, 2006 с Sea Launch Platform

Loading…

TLE

УстаревающийSource: Space-Track

Эпоха: Sep 14, 2026, 22:11 UTC

1 29521U 06049B   26257.92451409 -.00000135  00000-0  00000-0 0  9994
2 29521   0.9391  27.4107 6935233  97.5329 126.4476  2.18870480158901

Отслеживайте BLOCK DM-SL R/B в реальном времени с AllMySat

Download on the App Store